"Pseudo-MPEC" for 6DD2D21

Created 2026 Apr 17 11:35:02 UT using Find_Orb

Click here for an explanation of pseudo-MPECs

 
 Astrometry: 
     6DD2D21*KC2026 04 14.23469 14 00 22.00 -03 21 16.8    ~4EJo 19.3 GVNEOCPW94
     6DD2D21 KC2026 04 14.24089 14 00 10.86 -03 22 18.8    ~4EJo 19.3 GVNEOCPW94
     6DD2D21 KC2026 04 14.24706 13 59 59.69 -03 23 19.2    ~4EJo 19.2 GVNEOCPW94

Station data:
(W94) AMACS1, San Pedro de Atacama  (S22.953074 W68.179810)  Chile.  Observers
   A. Maury, G. Attard. Measurers A. Maury, G. Attard, D. Parrott. 0.28-m
   f/2.2 Schmidt + CCD.

Orbital elements:  6DD2D21
   Perihelion 2026 Jun 28.393095 +/- 71.3 TT =  9:26:03.4 (JD 2461219.893095)
Epoch 2026 Apr 14.0 TT = JDT 2461144.5   Earth MOID: 0.0587   Me: 0.0254
M 256.966496494 +/- 90              (J2000 ecliptic)             AutoNEOCP
n   1.366617235 +/- 0.656           Peri.  330.586464 +/- 70
a   0.804213674 +/- 0.257           Node    24.916973 +/- 28
e   0.56833883 +/- 0.225            Incl.   48.572824 +/- 35
P   0.721/263.419d         H 24.10  G  0.15   U 12.5  SR
q 0.347147812 +/- 0.258    Q 1.261279536 +/- 12.8
From 3 observations 2026 Apr. 14 (17.8 min); mean residual 0".29
Residuals in arcseconds: 
260414 W94  .18-  .23+    260414 W94  .36+  .45-    260414 W94  .18-  .23+    

Ephemerides (geocentric):
Date (UTC) HH   RA             Dec           delta  r     elong  mag " sig PA
---- --------  ------------   ------------  ------ ------ -----  --- --------
2026 04 17 12  11 51 35.244   -14 02 45.17  .06918 1.0660 153.1 19.6  44d  87
2026 04 17 13  11 49 36.377   -14 10 45.39  .06916 1.0657 152.6 19.6  44d  87
2026 04 17 14  11 47 37.310   -14 18 42.22  .06914 1.0654 152.1 19.6  44d  87
2026 04 17 15  11 45 38.059   -14 26 35.53  .06913 1.0652 151.5 19.6  44d  87
2026 04 17 16  11 43 38.642   -14 34 25.21  .06912 1.0649 151.0 19.6  44d  87
2026 04 17 17  11 41 39.078   -14 42 11.15  .06912 1.0646 150.5 19.7  44d  87
2026 04 17 18  11 39 39.384   -14 49 53.24  .06912 1.0643 150.0 19.7  44d  87
2026 04 17 19  11 37 39.578   -14 57 31.36  .06913 1.0640 149.4 19.7  44d  87
2026 04 17 20  11 35 39.680   -15 05 05.41  .06915 1.0637 148.9 19.7  44d  87
2026 04 17 21  11 33 39.707   -15 12 35.29  .06916 1.0635 148.4 19.7  44d  87
2026 04 17 22  11 31 39.678   -15 20 00.90  .06919 1.0632 147.9 19.7  45d  87
2026 04 17 23  11 29 39.611   -15 27 22.14  .06922 1.0629 147.3 19.7  45d  87
2026 04 18 00  11 27 39.525   -15 34 38.92  .06925 1.0626 146.8 19.8  45d  87
2026 04 18 01  11 25 39.438   -15 41 51.14  .06929 1.0623 146.3 19.8  45d  87
2026 04 18 02  11 23 39.369   -15 48 58.72  .06934 1.0620 145.8 19.8  45d  87
2026 04 18 03  11 21 39.337   -15 56 01.58  .06939 1.0618 145.2 19.8  45d  87
2026 04 18 04  11 19 39.359   -16 02 59.63  .06945 1.0615 144.7 19.8  45d  87
2026 04 18 05  11 17 39.455   -16 09 52.81  .06951 1.0612 144.2 19.8  45d  87
2026 04 18 06  11 15 39.643   -16 16 41.02  .06957 1.0609 143.7 19.9  45d  87
2026 04 18 07  11 13 39.941   -16 23 24.21  .06965 1.0606 143.2 19.9  45d  87
2026 04 18 08  11 11 40.367   -16 30 02.32  .06972 1.0603 142.6 19.9  45d  87
2026 04 18 09  11 09 40.939   -16 36 35.27  .06981 1.0601 142.1 19.9  45d  87
2026 04 18 10  11 07 41.676   -16 43 03.01  .06989 1.0598 141.6 19.9  45d  87
2026 04 18 11  11 05 42.594   -16 49 25.49  .06998 1.0595 141.1 19.9  45d  87
2026 04 18 12  11 03 43.712   -16 55 42.65  .07008 1.0592 140.6 19.9  45d  87
2026 04 18 13  11 01 45.047   -17 01 54.46  .07018 1.0589 140.1 20.0  45d  87
2026 04 18 14  10 59 46.616   -17 08 00.86  .07029 1.0586 139.6 20.0  45d  87
2026 04 18 15  10 57 48.437   -17 14 01.82  .07040 1.0583 139.1 20.0  45d  87
2026 04 18 16  10 55 50.525   -17 19 57.30  .07052 1.0580 138.6 20.0  45d  87
2026 04 18 17  10 53 52.898   -17 25 47.28  .07064 1.0578 138.0 20.0  45d  87
2026 04 18 18  10 51 55.572   -17 31 31.72  .07077 1.0575 137.5 20.0  45d  87
2026 04 18 19  10 49 58.563   -17 37 10.60  .07090 1.0572 137.0 20.1  46d  87
2026 04 18 20  10 48 01.887   -17 42 43.91  .07104 1.0569 136.5 20.1  46d  87
2026 04 18 21  10 46 05.559   -17 48 11.62  .07118 1.0566 136.0 20.1  46d  87
2026 04 18 22  10 44 09.594   -17 53 33.73  .07133 1.0563 135.5 20.1  46d  87
2026 04 18 23  10 42 14.007   -17 58 50.23  .07148 1.0560 135.0 20.1  46d  87
2026 04 19 00  10 40 18.813   -18 04 01.11  .07163 1.0557 134.6 20.1  46d  87
2026 04 19 01  10 38 24.027   -18 09 06.37  .07179 1.0555 134.1 20.2  46d  87
2026 04 19 02  10 36 29.661   -18 14 06.01  .07196 1.0552 133.6 20.2  46d  87
2026 04 19 03  10 34 35.730   -18 19 00.05  .07213 1.0549 133.1 20.2  46d  87
2026 04 19 04  10 32 42.247   -18 23 48.48  .07230 1.0546 132.6 20.2  46d  87
2026 04 19 05  10 30 49.224   -18 28 31.31  .07248 1.0543 132.1 20.2  46d  87
2026 04 19 06  10 28 56.675   -18 33 08.58  .07267 1.0540 131.6 20.3  46d  87
2026 04 19 07  10 27 04.611   -18 37 40.28  .07286 1.0537 131.2 20.3  46d  87
2026 04 19 08  10 25 13.044   -18 42 06.45  .07305 1.0534 130.7 20.3  46d  87
2026 04 19 09  10 23 21.986   -18 46 27.11  .07325 1.0531 130.2 20.3  46d  87
2026 04 19 10  10 21 31.447   -18 50 42.29  .07345 1.0528 129.7 20.3  46d  87
2026 04 19 11  10 19 41.438   -18 54 52.00  .07365 1.0526 129.3 20.3  46d  87